Flag for Sierra Leone Weather past 2 weeks in Freetown, Sierra Leone

Now
77 °F

Clear.


Feels Like: 79 °F
Forecast: 77 / 86 °F
Wind: 2 mph from North

Location: Conakry / Gbessia

Current Time: Dec 22, 2014 at 7:22:53 AM

Latest Report: Dec 22, 2014 at 6:00 AM


Visibility: 10 mi

Pressure: 29.86 "Hg

Humidity: 74%

Dew point: 68 °F

Location of FreetownLocation

Historic Weather in Freetown — Graph

°F

Freetown temperature yesterday

Maximum temperature yesterday: 90 °F (at 12:00 PM)
Minimum temperature yesterday: 75 °F (at 8:00 AM)
Average temperature yesterday: 82 °F

Past Weeks' High & Low Weather Summary

 TemperatureHumidityPressure
High93 °F (Dec 10, 6:00 PM)100% (Dec 11, 4:00 AM)29.98 "Hg (Dec 11, 4:00 AM)
Low72 °F (Dec 12, 7:00 AM)33% (Dec 21, 3:00 PM)29.80 "Hg (Dec 8, 3:00 PM)
Average81 °F75%29.88 "Hg
* Reported Dec 7 6:00 AM — Dec 22 6:00 AM, Freetown, Weather by CustomWeather, © 2014

Note: Actual official high and low records may vary slightly from our data, if they occured in-between our weather recording intervals... More about our weather records

Advertising

Freetown weather history for previous 24 hours

 ConditionsComfort  
Time TempWeatherWind HumidityBarometerVisibility
6:00 AM
Dec 22
77 °FClear.2 mph74%29.86 "Hg10 mi
1:00 AM79 °FFog.No wind79%29.89 "Hg2 mi
12:00 AM79 °FFog.No wind79%29.92 "Hg2 mi
11:00 PM
Dec 21
79 °FHaze.2 mph70%29.92 "Hg4 mi
9:00 PM81 °FHaze.5 mph66%29.89 "Hg4 mi
8:00 PM81 °FHaze.5 mph66%29.89 "Hg4 mi
7:00 PM82 °FHaze.7 mph62%29.86 "Hg4 mi
6:00 PM86 °FHaze.5 mph49%29.86 "Hg4 mi
5:00 PM90 °FHaze.5 mph38%29.86 "Hg4 mi
4:00 PM90 °FHaze.5 mph38%29.86 "Hg4 mi
3:00 PM90 °FHaze.7 mph33%29.86 "Hg4 mi
2:00 PM90 °FHaze.5 mph49%29.89 "Hg4 mi
12:00 PM90 °FHaze.2 mph38%29.95 "Hg3 mi
11:00 AM86 °FHaze.7 mph43%29.95 "Hg3 mi
10:00 AM84 °FHaze.2 mph48%29.98 "Hg2 mi
9:00 AM79 °FScattered clouds.2 mph61%29.92 "Hg3 mi
8:00 AM75 °FSunny.2 mph74%29.92 "Hg10 mi
7:00 AM77 °FClear.2 mph61%29.92 "Hg10 mi
Weather by CustomWeather, © 2014

See weather overviewHow to use our weather pages